Regional Weather Roundup
Issued by NWS

Home | Current Version | Previous Version | Text Only | Print | Product List | Glossary On
Versions: 1 2 3 4 5 6 7 8 9 10 11 12 13 14 15 16 17 18 19 20 21 22 23 24 25 26 27 28 29 30 31 32 33 34 35 36 37 38 39 40 41 42 43 44 45 46 47 48 49 50
000
ASUS43 KMPX 261210
RWRMN
WEATHER ROUNDUP FOR MINNESOTA
NATIONAL WEATHER SERVICE TWIN CITIES/CHANHASSEN MN
700 AM CDT SAT JUL 26 2014


NOTE: "FAIR" INDICATES FEW OR NO CLOUDS BELOW 12,000 FEET WITH NO
SIGNIFICANT WEATHER AND/OR OBSTRUCTIONS TO VISIBILITY. N/A MEANS
CURRENT SKY AND/OR WEATHER CONDITIONS ARE NOT AVAILABLE.

MNZ060>063-068>070-261300-
   Twin Cities Metro

CITY           SKY/WX    TMP DP  RH WIND       PRES   REMARKS
TWIN CITIES    CLOUDY    72  70  93 NW5       29.81R
6HR MIN TEMP:  71; 6HR MAX TEMP:  75;

ST PAUL        PTSUNNY   71  69  93 CALM      29.82R FOG
CRYSTAL        PTSUNNY   73  68  84 NW6       29.81R
BLAINE         MOSUNNY   72  72 100 NW6       29.82R
LAKEVILLE      PTSUNNY   68  66  94 CALM      29.82R FOG
EDEN PRAIRIE   CLOUDY    72  70  94 N3        29.81R FOG
6HR MIN TEMP:  69; 6HR MAX TEMP:  74;

SOUTH ST PAUL  CLOUDY    72  69  91 CALM      29.81R
LAKE ELMO      FAIR      70  70 100 CALM      29.83R FOG
$$
MNZ001>005-007-008-013>017-022>024-027-028-261300-
   Northwest Minnesota

CITY           SKY/WX    TMP DP  RH WIND       PRES   REMARKS
BEMIDJI        CLEAR     58  55  88 SW3       29.80R
HALLOCK        CLEAR     57  55  94 S6        29.72S
ROSEAU         CLEAR     55  50  82 S3        29.75S
WARROAD        SUNNY     57  54  88 CALM      29.76R
THIEF RVR FALL CLEAR     59  55  88 S7        29.77S
CROOKSTON      CLEAR     59  55  88 S6        29.77R
FOSSTON        CLEAR     55  54  94 S6        29.80S
DETROIT LAKES  CLEAR     61  57  88 SE5       29.82F
MOORHEAD       CLEAR     61  59  94 S6        29.78S
PARK RAPIDS    CLEAR     57  54  89 CALM      29.83R
$$
MNZ006-009>011-018-025>026-261300-
   North Central Minnesota

CITY           SKY/WX    TMP DP  RH WIND       PRES   REMARKS
BAUDETTE       SUNNY     57  54  89 S3        29.77R
FLAG ISLAND    SUNNY     64  54  68 NW7       29.72F
INTL FALLS     SUNNY     58  55  90 CALM      29.75S
6HR MIN TEMP:  53; 6HR MAX TEMP:  65;

WASKISH        SUNNY     61  57  88 CALM      29.79R
BIG FORK       SUNNY     55  54  94 CALM      29.80R
LONGVILLE      SUNNY     55  54  94 CALM      29.81F FOG
GRAND RAPIDS   SUNNY     63  55  77 W5        29.82R
CRANE LAKE     SUNNY     57  55  94 CALM      29.77R
ORR            SUNNY     57  54  88 CALM      29.76R
COOK           SUNNY     59  57  94 W3        29.79R
$$
MNZ012-019>021-037-261300-
   Northeast Minnesota

CITY           SKY/WX    TMP DP  RH WIND       PRES   REMARKS
DULUTH         MOSUNNY   67  61  81 W8        29.79R
6HR MIN TEMP:  64; 6HR MAX TEMP:  71;

ELY            SUNNY     61  61 100 W5        29.76R
HIBBING        SUNNY     60  58  92 W3        29.79R
EVELETH        SUNNY     61  59  94 W5        29.79S
DULUTH HARBOR  SUNNY     70  64  83 W13       29.77R
TWO HARBORS    SUNNY     66  61  82 W6        29.75R
SILVER BAY     SUNNY     66  64  94 W3        29.73R
GRAND MARAIS     N/A     54  54 100 CALM      29.70S
G MARAIS ARPRT SUNNY     64  59  82 W5        29.74F
$$
MNZ029>031-032-039>041-046>048-054>057-064-261300-
   West Central Minnesota

CITY           SKY/WX    TMP DP  RH WIND       PRES   REMARKS
FERGUS FALLS   CLEAR     63  55  77 CALM      29.79F
WHEATON        CLOUDY    55  55 100 S1        29.82S VSB 1/2
MORRIS         PTCLDY    59  57  94 S5        29.80F
ALEXANDRIA     PTCLDY    62  60  93 NE6       29.81F
ELBOW LAKE     FAIR      61  60  97 SE5       29.80R
WADENA         CLEAR     57  55  94 CALM      29.82S
GLENWOOD       PTCLDY    61  61 100 S3        29.83S
APPLETON       MOCLDY    64  63  94 CALM      29.81S FOG
BENSON         MOCLDY    63  61  94 CALM      29.82S FOG
ORTONVILLE     MOCLDY    64  63  94 NE3       29.81S FOG
MADISON          N/A     66  64  94 S3        29.82F FOG
WILLMAR        FOG       64  63  94 SW5       29.86R VSB 1/4
$$
MNZ033>034-036-042>043-049>051-058-059-261300-
   Central Minnesota

CITY           SKY/WX    TMP DP  RH WIND       PRES   REMARKS
ST CLOUD       PTCLDY    65  62  90 N5        29.81F
6HR MIN TEMP:  61; 6HR MAX TEMP:  71;

SAUK CENTRE    FAIR      60  60  99 CALM      29.82S
PAYNESVILLE    MOCLDY    59  59 100 CALM      29.82F FOG
AITKIN         SUNNY     64  59  82 SW3       29.81S
PINE RIVER     SUNNY     57  57 100 CALM      29.86S
BRAINERD       SUNNY     59  59 100 CALM      29.84S FOG
STAPLES        CLEAR     57  55  94 CALM      29.83S
LONG PRAIRIE   FAIR      59  57  94 W3        29.83S
LITTLE FALLS   CLEAR     59  57  94 CALM      29.83F
LITCHFIELD     CLOUDY    66  66 100 CALM      29.83S FOG
BUFFALO        MOCLDY    68  64  87 CALM      29.83S
MAPLE LAKE     MOCLDY    67  65  93 NE3       29.83S
$$
MNZ037-044-045-052-053-261300-
   East Central Minnesota

CITY           SKY/WX    TMP DP  RH WIND       PRES   REMARKS
PRINCETON      FOG       64  63  94 CALM      29.83S VSB 1/4
MORA           SUNNY     63  63 100 CALM      29.84S
CAMBRIDGE      SUNNY     70  61  73 CALM      29.81R
RUSH CITY      SUNNY     66  64  96 NW5       29.82R
MOOSE LAKE     SUNNY     64  63  94 W5        29.80R
HINCKLEY       FAIR      64  64 100 W3        29.82R FOG
CLOQUET        SUNNY     64  61  88 W7        29.81R
MCGREGOR       SUNNY     63  61  94 SW5       29.82S
$$
MNZ071>073-080-081-089-090-097-098-261300-
   Southwest Minnesota

CITY           SKY/WX    TMP DP  RH WIND       PRES   REMARKS
MONTEVIDEO     FOG       66  64  94 S3        29.83S VSB 1/2
GRANITE FALLS  CLOUDY    66  66 100 CALM      29.84F FOG
CANBY          CLOUDY    68  66  94 NE7       29.80F
MARSHALL       CLOUDY    66  64  94 SW6       29.85R
REDWOOD FALLS  CLOUDY    69  67  93 CALM      29.84R FOG
OLIVIA         FOG       68  64  88 W3        29.85R VSB<1/4
PIPESTONE      CLOUDY    70  66  88 SE6       29.85F FOG
WINDOM         LGT RAIN  70  66  88 E5        29.84R
WORTHINGTON    MOCLDY    70  66  88 E7        29.88F
JACKSON        CLOUDY    70  66  88 CALM      29.88R FOG
TRACY          CLOUDY    69  67  95 S7        29.86R FOG
SLAYTON        CLOUDY    68  67  98 CALM      29.88F FOG
$$
MNZ065>067-074>077-082>085-091>093-261300-
   South Central Minnesota

CITY           SKY/WX    TMP DP  RH WIND       PRES   REMARKS
MANKATO        CLOUDY    70  64  83 SW7       29.84S
NEW ULM        CLOUDY    68  68 100 CALM      29.83F FOG
ST JAMES       LGT RAIN  70  68  94 SW10      29.88R
FAIRMONT       CLOUDY    68  57  68 NW3       29.87R
GLENCOE        CLOUDY    68  65  90 CALM      29.83R FOG
FARIBAULT      PTSUNNY   73  66  78 S3        29.83S HAZE
OWATONNA       CLOUDY    72  70  94 CALM      29.84R FOG
WASECA         CLOUDY    68  64  88 CALM      29.86R FOG
ALBERT LEA     MOCLDY    72  70  94 SW3       29.85R FOG
$$
MNZ078>079-086>088-094>096-261300-
   Southeast Minnesota

CITY           SKY/WX    TMP DP  RH WIND       PRES   REMARKS
ROCHESTER      FOG       69  68  96 SW9       29.86R VSB 1/4
6HR MIN TEMP:  69; 6HR MAX TEMP:  69;

RED WING       CLOUDY    72  70  94 CALM      29.81R
STANTON        PTSUNNY   70  67  92 S5        29.82R FOG
DODGE CENTER   CLOUDY    72  70  94 SW10      29.86R FOG
WINONA         CLOUDY    70  64  83 CALM      29.83R
AUSTIN         FOG       70  70 100 SE3       29.84F VSB<1/4
PRESTON        FOG       65  66 100 SW3       29.87R VSB 1/2
$$
ABBREVIATIONS USED IN REMARKS
   TC - TEMPERATURES IN CELSIUS
  WCI - WIND CHILL INDEX
   HX - HEAT INDEX
  VSB - VISIBILITY
$$



USA.gov is the U.S. government's official web portal to all federal, state and local government web resources and services.